Погода в Богородчанах

Украина / Ивано-Франковская область     48°48′28″N   24°32′16″E
темп.,
°C
ветер,
м/с
пор.,
м/с
влажн.,
%
обл.,
%
осадки,
мм/ч
давл.,
гПа
погр.,
м
25 февраля, чт
чт2523:00+5юз238622 0.0 103624
02:00+5юз338532 0.0 103626
05:00+5юз33850 0.0 103428
08:00+5юз33840 0.0 103429
11:00+10ююз119329 0.0 103352
14:00+12ююв128643 0.0 1032143
17:00+10юз238724 0.0 103142
20:00+6юз347712 0.0 103235
26 февраля, пт
пт2623:00+5юз22720 0.0 103132
02:00+5юз33710 0.0 103034
05:00+4юз22740 0.0 102937
08:00+5юз23750 0.0 102931
11:00+12юз14620 0.0 1027223
14:00+15сз25540 0.0 1025983
17:00+11ссз23780 0.0 102475
20:00+6зюз33850 0.0 102440
27 февраля, сб
сб2723:00+7зсз388057 0.0 1024298
02:00+4ссз5129078 0.9 1025624
05:00+3зсз61187100 1.9 1024838
08:00+3зсз41088100 2.1 1024858
11:00+3сз6118798 0.1 10241082
14:00+2сз7129199 0.4 1025961
17:00+2сз71387100 0.3 10251110
20:00+1сз7139498 0.7 1027986
28 февраля, вс
вс2823:00+1сз71393100 0.3 1028760
02:00+1сз6128998 0.6 1029759
05:000сз61095100 0.4 1029749
08:00−1сз5993100 0.9 1031644
11:000сз5884100 0.3 1031787
14:00+1сз6877100 0.3 1031987
17:00+1сз5880100 0.0 1031795
20:00−1зсз398698 0.0 1032341
1 марта, пн
пн123:00−1з378299 0.0 1033244
02:00−1зсз368695 0.0 1034168
05:00−1зсз259396 0.0 1034196
08:00−1зсз249076 0.1 1035161
11:00+2ссз237455 0.0 1036678
14:00+3ссз227072 0.1 1036735
17:00+2ссз2376100 0.0 1036444
20:00−1зсз129167 0.0 103824